This demonstration page uses our WeatherBlox Daily Observations layout. Learn more.

Left ArrowRight Arrow

34.74481, -87.66753

Hourly Observations for June 27, 2018

Temp ( °F °C ) Dew Point ( °F °C ) Humidity (%) Winds ( mph kmh ) Pressure ( in mb ) Visibility ( mi km ) Precip ( " mm )
12:53 am 00:53 Clear 78 25.6 69 20.6 74 74 SSW 6 9 30.03 1017 10 16 0.00 0.00
1:53 am 01:53 Clear 76 24.4 69 20.6 79 79 SSW 3 6 30.00 1016 10 16 0.00 0.00
2:53 am 02:53 Clear 75 23.9 70 21.1 84 84 ENE 6 9 29.99 1016 10 16 0.00 0.00
3:53 am 03:53 Clear 75 23.9 71 21.7 88 88 Calm 29.99 1016 10 16 0.00 0.00
4:53 am 04:53 Clear 74 23.3 70 21.1 88 88 ENE 3 6 30.00 1016 10 16 0.00 0.00
5:53 am 05:53 Sunny 73 22.8 70 21.1 90 90 SE 6 9 30.02 1017 10 16 0.00 0.00
6:53 am 06:53 Sunny 75 23.9 71 21.7 88 88 Calm 30.02 1017 10 16 0.00 0.00
7:53 am 07:53 Sunny 77 25 72 22.2 85 85 S 6 9 30.02 1017 10 16 0.00 0.00
8:53 am 08:53 Sunny 80 26.7 73 22.8 79 79 WSW 7 11 30.02 1017 10 16 0.00 0.00
9:53 am 09:53 Sunny 83 28.3 74 23.3 74 74 WSW 8 13 30.01 1016 10 16 0.00 0.00
10:53 am 10:53 Sunny 82 27.8 74 23.3 77 77 WSW 6 9 30.02 1017 10 16 0.00 0.00
11:53 am 11:53 Sunny 85 29.4 75 23.9 72 72 WSW 12 19 30.02 1017 10 16 0.00 0.00
12:53 pm 12:53 Sunny 88 31.1 76 24.4 68 68 WSW 7 11 30.01 1016 10 16 0.00 0.00
1:53 pm 13:53 Partly Cloudy 90 32.2 76 24.4 63 63 W 13 20 29.97 1015 10 16 0.00 0.00
2:53 pm 14:53 Mostly Sunny 91 32.8 75 23.9 59 59 W 12 19 29.93 1014 10 16 0.00 0.00
3:53 pm 15:53 Partly Cloudy 89 31.7 73 22.8 59 59 W 12 19 29.92 1013 10 16 0.00 0.00
4:53 pm 16:53 Partly Cloudy 90 32.2 73 22.8 58 58 WSW 14 22 29.91 1013 10 16 0.00 0.00
5:53 pm 17:53 Partly Cloudy 89 31.7 74 23.3 61 61 SW 9 15 29.92 1013 10 16 0.00 0.00
6:53 pm 18:53 Mostly Sunny 88 31.1 75 23.9 66 66 WSW 9 15 29.92 1013 10 16 0.00 0.00
7:53 pm 19:53 Sunny 86 30 75 23.9 70 70 SW 6 9 29.92 1013 10 16 0.00 0.00
8:53 pm 20:53 Clear 83 28.3 75 23.9 77 77 SSE 6 9 29.94 1014 10 16 0.00 0.00
9:53 pm 21:53 Mostly Clear 81 27.2 75 23.9 82 82 SSE 6 9 29.98 1015 10 16 0.00 0.00
10:53 pm 22:53 Clear 79 26.1 73 22.8 82 82 SSW 7 11 29.97 1015 10 16 0.00 0.00
11:53 pm 23:53 Clear 78 25.6 74 23.3 87 87 SSW 3 6 29.97 1015 10 16 0.00 0.00

Powered by AerisWeather